This is the latest recevied weather packets stored in our database for station/object K9VSK-9. If no packets are shown the sender has not sent any weather packets the latest 10 day(s).
| Time | Temp. | Humidity | Pressure | Rain* | Wind** | Luminosity | Snow |
|---|---|---|---|---|---|---|---|
| 1777447828 | 10° C | 91% | 1014.8 hPa | 0 mm | - | - | - |
| 1777447528 | 10.56° C | 91% | 1014.8 hPa | 0 mm | - | - | - |
| 1777447228 | 10.56° C | 91% | 1014.8 hPa | 0 mm | - | - | - |
| 1777446927 | 10.56° C | 91% | 1014.9 hPa | 0 mm | - | - | - |
| 1777446627 | 10.56° C | 91% | 1015 hPa | 0 mm | - | - | - |
| 1777446327 | 10.56° C | 91% | 1015 hPa | 0 mm | - | - | - |
| 1777446027 | 10.56° C | 91% | 1015.1 hPa | 0 mm | - | - | - |
| 1777445726 | 10.56° C | 91% | 1015.1 hPa | 0 mm | - | - | - |
| 1777445426 | 10.56° C | 91% | 1015.2 hPa | 0 mm | - | - | - |
| 1777445126 | 10.56° C | 91% | 1015.2 hPa | 0 mm | - | - | - |
| 1777444826 | 11.11° C | 91% | 1015 hPa | 0 mm | - | - | - |
| 1777444525 | 11.11° C | 91% | 1015.1 hPa | 0 mm | - | - | - |
| 1777444225 | 11.11° C | 91% | 1015 hPa | 0 mm | - | - | - |
| 1777443925 | 11.11° C | 91% | 1015 hPa | 0 mm | - | - | - |
| 1777443624 | 11.11° C | 90% | 1014.9 hPa | 0 mm | - | - | - |
| 1777443324 | 11.11° C | 90% | 1014.8 hPa | 0 mm | - | - | - |
| 1777443024 | 11.11° C | 90% | 1014.8 hPa | 0 mm | - | - | - |
| 1777442724 | 11.11° C | 89% | 1014.7 hPa | 0 mm | - | - | - |
| 1777442423 | 11.67° C | 89% | 1014.6 hPa | 0 mm | - | - | - |
| 1777442123 | 11.67° C | 89% | 1014.7 hPa | 1.02 mm | - | - | - |
| 1777441823 | 11.67° C | 89% | 1015 hPa | 1.52 mm | - | - | - |
| 1777441522 | 11.67° C | 88% | 1015.2 hPa | 2.29 mm | - | - | - |
| 1777441222 | 11.67° C | 88% | 1015.1 hPa | 2.29 mm | - | - | - |
| 1777440922 | 11.67° C | 89% | 1015 hPa | 5.59 mm | - | - | - |
| 1777440621 | 12.22° C | 90% | 1015.1 hPa | 0 mm | - | - | - |
* Rain latest hour (hover to see other rain measurements)
** Current wind speed in m/s (hover to see current wind gust speed)